Theta_e
343 341 341 340 340 339 338 336 331 330 328 326 318 309 307 308 308 308 310 312 314 314 314 313 312 312 313 316 318 318 318 317 314 316 321 324 325 321 326 333 334 336 336 336 335 335 335 334 334 332 331 330 326 324 323 318 310 308 307 307 306 305 306 306 308 308 309 308 309 311 311 313 310 308 307 306 308 306 307 315 316 313 313 310 306
343 341 340 340 340 339 338 335 331 331 326 323 319 310 307 308 308 311 315 317 318 318 318 314 311 310 311 314 316 319 322 323 318 318 323 325 327 324 326 332 334 335 335 335 335 334 334 334 333 331 331 330 326 323 321 317 311 309 307 307 306 306 305 306 307 308 309 310 313 316 316 312 311 315 317 316 317 313 308 308 308 306 306 307 306
342 341 340 340 340 339 337 336 332 329 321 319 317 309 307 309 313 320 323 323 322 321 320 318 315 316 318 320 323 326 329 331 329 327 327 326 326 325 328 333 334 335 335 334 334 333 333 333 332 330 330 329 326 323 319 313 310 310 308 307 306 306 306 306 306 307 310 314 318 320 320 316 312 317 321 321 321 319 315 309 308 308 308 311 310
342 340 340 339 339 339 338 337 333 327 318 317 314 307 308 314 322 327 329 328 326 323 322 323 322 324 327 329 330 331 332 332 333 332 332 330 327 328 332 333 334 333 333 333 332 333 332 332 331 331 329 328 325 322 317 311 310 310 308 306 306 306 306 306 306 306 309 315 320 322 323 321 316 317 320 323 323 322 320 316 313 312 313 314 313
341 340 340 339 338 338 337 336 332 324 316 314 310 306 313 322 328 329 331 331 330 327 326 327 327 328 330 331 331 332 332 333 333 333 333 333 331 332 333 332 331 331 331 331 330 330 330 330 329 329 328 327 325 320 314 310 310 309 307 306 306 306 306 306 306 306 308 313 319 321 324 322 318 318 320 323 325 324 323 322 318 316 315 314 317
341 340 339 338 337 337 336 335 331 320 312 311 306 309 319 327 330 330 331 331 331 330 329 330 330 330 330 330 331 331 332 333 333 333 332 331 331 331 330 328 328 327 328 328 327 326 325 325 326 326 325 323 320 316 312 311 309 308 307 307 306 306 305 306 306 306 307 310 317 320 321 320 318 320 322 323 324 325 326 325 324 321 320 320 321
341 340 339 338 337 337 335 335 331 316 310 308 306 315 325 329 330 330 331 331 331 331 331 331 331 331 331 330 331 331 331 332 332 331 330 329 329 329 328 328 327 327 326 325 324 323 322 322 322 321 320 317 316 314 312 310 308 307 308 307 306 306 305 306 306 306 307 309 312 315 316 315 317 321 322 323 323 324 324 324 325 323 322 323 322
341 340 339 338 337 337 335 335 325 312 309 306 310 322 327 329 330 331 331 331 332 332 332 331 331 331 331 331 331 332 331 331 331 330 330 329 330 330 329 328 327 326 323 321 318 318 318 319 319 319 317 316 315 313 310 308 307 307 308 307 307 306 306 306 306 307 308 308 308 309 311 310 314 318 318 321 323 321 320 320 320 319 319 322 322
341 340 339 338 338 336 335 333 318 308 308 306 317 325 326 329 331 331 331 331 332 332 332 331 331 331 332 331 331 332 332 331 331 331 331 330 330 329 328 327 324 319 315 312 310 311 312 314 316 316 316 315 314 311 309 309 307 307 307 306 306 306 306 306 306 309 309 309 308 307 308 308 312 314 312 315 317 316 315 315 315 315 316 317 320
341 340 339 339 337 335 336 330 313 308 307 309 322 325 326 330 331 331 331 331 332 332 332 332 332 331 332 332 332 332 332 332 332 332 331 331 330 329 329 325 317 312 309 308 308 308 309 312 313 312 313 312 311 309 308 310 309 307 307 307 306 306 306 306 307 309 310 309 308 306 306 307 310 310 307 308 309 309 310 311 311 311 311 312 314
340 340 339 338 336 336 335 325 310 308 307 312 323 325 328 330 330 331 331 331 331 332 332 332 332 332 333 333 333 333 333 332 332 332 331 331 331 330 329 322 313 309 309 308 308 307 309 313 314 315 314 313 312 311 310 311 311 308 307 306 306 306 306 306 307 310 310 308 306 306 306 306 307 307 306 307 306 307 307 307 307 307 307 307 308
341 340 339 337 336 335 331 319 310 309 308 315 324 327 330 330 330 331 331 331 332 332 332 332 332 333 333 333 334 333 333 333 332 333 332 332 331 330 327 320 314 311 309 307 308 308 310 314 315 316 316 314 314 315 314 314 313 309 306 307 306 306 306 306 307 310 311 308 307 306 306 306 307 307 306 306 306 306 307 307 307 307 307 307 307
340 340 338 336 335 332 324 315 311 309 311 319 326 329 330 330 331 331 331 332 332 333 333 333 333 333 333 333 333 333 333 333 332 333 332 332 330 329 326 322 316 311 309 307 308 308 312 317 315 314 315 313 313 313 314 314 313 309 306 307 306 307 307 306 308 311 312 309 307 307 307 307 308 308 307 307 307 307 307 306 307 306 307 306 307
340 339 337 335 333 327 319 313 312 314 317 322 327 330 331 331 331 331 332 332 332 333 333 333 333 333 333 333 333 332 332 332 332 332 332 331 329 327 324 320 313 309 308 308 308 307 310 315 313 310 311 312 312 310 310 310 309 307 307 307 306 307 306 307 309 312 314 312 309 308 309 309 310 309 308 308 307 308 309 309 311 311 311 311 311
340 338 336 334 330 325 318 313 316 321 322 324 328 330 331 331 331 331 331 331 331 331 332 332 332 332 332 332 332 331 331 331 331 331 330 328 326 323 319 314 310 309 308 308 308 307 308 310 309 309 309 311 311 309 308 307 307 307 307 307 307 307 307 308 309 312 317 314 310 311 312 312 311 310 309 309 308 310 312 315 318 319 320 319 318
339 338 336 333 329 323 316 315 322 325 325 327 330 331 331 331 331 331 330 330 330 330 330 329 329 329 329 329 329 329 328 328 327 326 325 323 321 317 313 310 309 309 308 309 308 308 310 310 310 311 311 313 313 310 308 308 308 308 307 308 308 309 308 310 311 314 319 316 314 316 317 316 314 313 312 312 314 315 317 319 322 322 322 322 321
339 337 335 332 328 322 314 316 324 326 327 330 330 331 331 331 330 330 329 329 328 327 326 325 325 324 324 324 323 323 322 322 321 319 318 316 314 311 309 309 309 310 311 312 311 312 312 312 312 312 312 313 312 311 311 311 310 309 310 310 310 311 311 314 315 316 319 319 321 321 318 317 317 315 315 317 319 320 322 323 324 324 323 323 323
338 336 334 331 328 320 313 316 324 327 329 330 330 330 330 330 329 328 327 326 326 324 322 321 319 317 316 316 316 316 316 315 314 312 311 310 310 310 309 309 309 310 311 313 313 314 314 314 315 315 315 313 314 315 316 316 315 314 315 315 313 315 315 316 317 319 323 323 322 322 319 318 318 317 318 319 321 322 324 325 325 325 324 323 323
337 336 334 331 328 320 313 316 323 326 328 330 330 330 329 329 328 327 326 324 321 318 316 315 313 311 310 310 310 310 310 310 310 310 311 313 315 315 314 312 312 312 313 315 315 316 317 318 318 319 319 318 318 319 320 320 319 319 319 319 319 318 317 318 319 323 324 323 323 322 321 319 318 319 320 320 321 323 325 325 324 324 324 324 324
337 336 333 331 327 319 313 316 322 326 328 329 329 329 328 327 325 323 321 317 315 313 311 310 309 309 308 309 309 310 311 311 313 316 319 321 322 321 319 318 318 318 319 320 322 322 323 323 322 323 323 322 321 320 321 321 320 320 320 320 321 320 319 320 322 324 324 324 324 322 321 321 320 320 322 323 323 325 326 324 323 324 325 325 326
337 335 334 331 327 318 312 315 322 325 327 328 328 328 325 320 318 316 314 315 315 313 310 311 312 312 312 313 314 317 317 318 320 322 324 325 324 324 323 322 322 322 323 324 325 326 325 325 325 325 325 325 324 322 323 323 322 323 322 322 323 323 323 323 323 324 324 324 324 322 324 325 324 323 324 325 326 326 325 324 324 325 325 325 326
336 335 334 332 326 316 312 315 320 323 324 325 323 321 318 314 315 316 317 318 316 315 316 318 319 319 320 320 322 323 323 323 325 325 325 326 326 326 325 325 325 325 326 326 326 327 327 326 327 327 326 326 326 325 325 325 325 326 325 325 325 325 325 324 324 325 325 325 325 325 327 327 327 327 327 327 327 326 325 325 326 325 325 326 326
336 335 334 332 324 315 314 317 320 321 320 320 315 313 316 317 319 320 319 317 317 320 323 322 323 324 324 325 326 327 326 327 327 327 327 328 328 327 326 327 327 327 327 327 327 327 327 327 327 328 327 326 326 326 326 327 327 327 327 327 326 326 325 325 326 326 326 327 327 327 327 328 328 328 328 327 327 326 326 326 326 326 326 327 326
336 335 334 331 325 321 320 317 319 318 314 314 314 315 322 324 324 324 321 319 320 324 326 325 325 327 327 328 328 328 328 329 328 328 329 329 328 327 326 328 329 328 328 327 327 327 328 328 328 328 327 327 327 327 327 327 327 327 328 328 327 327 327 327 328 328 328 328 327 327 327 328 328 328 328 328 328 327 327 327 327 327 328 328 327
336 334 333 332 328 328 325 317 316 317 315 320 321 320 326 327 327 327 325 325 326 327 328 327 327 328 328 329 329 329 330 330 328 329 330 329 327 327 326 326 328 327 327 327 326 327 328 327 327 326 326 326 327 327 327 327 327 327 327 328 328 328 328 328 328 328 328 328 327 326 327 328 328 328 328 329 329 329 329 329 329 329 329 329 328
336 334 333 332 330 330 328 323 323 324 324 327 325 323 327 328 327 329 328 329 329 329 330 329 328 329 330 330 330 330 330 329 327 328 329 327 326 326 326 326 326 326 326 326 326 327 327 326 326 326 325 326 326 327 327 327 326 325 325 326 326 327 328 328 328 328 328 328 326 325 326 328 327 328 328 328 328 328 329 329 329 329 328 329 328
336 334 333 331 330 331 330 329 328 328 328 329 327 325 327 328 328 329 330 330 330 330 331 330 329 330 331 330 329 329 328 327 326 326 327 327 327 327 327 327 327 326 326 327 327 326 326 327 327 326 326 326 326 326 326 325 323 321 321 321 321 323 325 326 326 327 327 327 326 324 325 326 326 326 326 325 325 325 326 326 327 327 327 327 327
335 334 333 331 330 331 330 330 329 328 329 329 327 326 328 329 328 329 330 331 330 330 330 330 330 330 331 330 328 329 328 327 327 327 327 327 327 327 327 327 328 327 327 327 327 327 326 327 327 325 325 326 326 325 324 322 319 317 316 317 319 321 323 324 325 325 325 325 326 325 323 322 322 321 320 320 319 320 320 321 321 322 322 322 323
334 333 333 331 330 331 330 329 330 329 329 328 327 327 329 329 329 329 330 331 329 330 330 330 330 330 331 330 329 329 328 327 328 328 328 328 327 327 327 327 327 327 327 327 326 327 326 326 326 324 324 324 323 321 318 316 314 313 313 314 315 320 323 323 324 324 324 325 325 325 323 320 318 317 314 313 313 314 314 315 315 316 316 317 319
333 332 333 332 330 331 331 330 331 330 329 327 327 328 329 329 329 329 330 331 330 331 330 331 331 330 331 330 329 328 327 327 328 327 327 328 328 327 327 326 327 326 326 326 325 325 325 325 323 320 320 319 317 315 313 312 311 310 310 309 313 320 322 321 323 324 324 324 323 324 322 317 315 313 309 306 306 307 307 308 308 309 311 313 314
333 331 332 333 331 331 332 331 331 330 329 328 328 328 329 330 330 329 330 331 331 331 331 330 330 329 329 328 327 327 327 327 327 327 326 327 328 327 326 326 326 326 325 325 325 323 323 322 318 315 314 313 312 311 310 310 309 308 307 307 315 320 319 319 322 323 323 323 322 322 319 314 311 310 307 303 301 302 302 302 302 303 305 307 308
332 331 331 332 331 331 331 331 331 330 329 329 329 329 329 330 331 330 330 331 330 330 329 329 329 328 328 327 327 327 328 328 328 328 327 327 326 325 325 325 325 325 324 322 321 320 318 316 313 312 311 310 310 308 308 309 307 307 306 307 312 314 315 319 320 321 322 322 322 320 314 310 309 308 307 302 300 300 299 300 299 300 303 303 303
331 330 330 331 332 331 331 330 330 329 329 329 329 329 330 330 331 331 330 330 330 328 327 327 327 327 327 326 327 329 328 328 328 327 326 326 325 325 325 325 324 323 321 318 316 314 313 311 310 309 309 308 308 307 307 307 307 306 305 306 309 309 313 316 317 317 319 320 320 316 308 307 306 304 304 300 299 299 298 299 298 298 301 302 301
330 330 330 331 331 331 331 330 329 330 329 329 328 329 330 331 330 331 330 329 328 327 326 326 327 327 327 326 327 329 328 327 326 326 326 325 324 324 324 323 322 320 317 314 311 310 309 309 308 307 308 307 307 306 306 305 306 304 303 306 307 309 311 313 315 314 314 316 315 309 303 303 302 300 300 299 299 298 298 298 298 298 299 300 300
329 330 330 330 330 331 331 330 330 330 329 328 328 329 330 331 331 331 330 327 327 327 326 325 327 327 327 326 327 327 326 325 325 325 325 324 324 324 323 321 319 316 313 309 308 307 307 307 307 307 306 306 306 305 305 304 304 302 302 306 307 309 310 310 312 311 310 312 309 303 300 299 299 298 298 298 298 298 297 297 297 297 298 298 299
328 329 328 328 329 330 330 330 329 329 328 328 329 329 330 331 330 330 329 327 328 328 327 326 327 327 327 327 327 326 325 325 324 324 324 324 323 322 319 317 314 310 308 306 306 306 306 306 306 306 306 306 305 305 305 304 303 301 302 305 307 310 311 307 307 307 306 304 302 299 298 298 298 298 297 298 297 297 296 296 296 297 297 297 297
327 327 327 328 329 329 329 329 329 328 327 328 329 329 329 329 329 330 329 328 328 328 327 327 326 326 326 327 326 324 324 324 324 323 323 322 321 318 314 311 308 306 306 306 305 305 305 305 305 306 306 306 306 305 305 303 303 301 302 305 306 310 312 306 301 301 300 299 298 297 297 297 297 297 297 296 296 296 296 295 295 296 297 297 297
325 325 327 328 329 329 329 329 328 328 327 327 328 328 329 329 328 328 328 328 328 328 327 326 326 326 326 326 324 324 324 323 322 321 320 319 316 312 308 306 306 305 305 305 304 305 305 305 306 306 307 306 306 305 304 302 301 300 301 303 304 309 312 306 300 298 298 298 298 297 296 297 296 296 296 296 296 296 295 295 295 296 295 295 296
322 324 325 327 327 328 329 329 328 327 327 326 327 328 328 328 327 327 326 326 327 327 327 326 326 326 326 325 324 323 322 321 320 319 317 314 308 306 305 304 304 303 304 304 304 305 305 305 306 305 305 305 304 303 301 301 300 299 300 301 303 306 309 305 300 298 298 297 298 296 296 296 296 296 296 296 296 295 295 295 295 295 294 294 294
318 322 324 325 326 326 327 328 328 327 326 326 327 328 328 328 327 326 325 325 326 326 327 326 325 325 325 324 323 321 319 317 316 314 310 307 304 304 303 303 303 302 303 304 304 305 305 305 304 303 302 301 301 300 300 299 299 299 299 300 302 303 304 304 302 299 298 297 297 297 296 296 296 296 295 295 295 295 295 295 295 294 294 293 293
314 318 320 322 323 324 325 325 326 326 326 326 326 327 327 326 325 324 324 324 324 325 325 325 324 324 323 322 319 315 313 311 309 307 304 303 303 302 302 302 302 303 303 304 304 304 303 302 301 300 300 299 299 299 299 299 298 298 299 301 302 301 301 304 304 300 297 297 298 297 296 295 295 295 295 295 294 294 294 294 294 294 293 293 292
311 314 317 320 321 322 324 324 324 324 325 325 325 326 326 325 324 323 323 323 323 323 324 323 323 322 320 318 313 309 307 305 303 302 301 301 301 301 302 302 303 303 304 303 303 301 300 299 299 299 299 299 299 299 298 298 298 297 298 301 301 300 302 305 303 298 297 298 297 297 295 294 295 295 295 294 294 294 293 293 293 293 293 292 292
310 311 315 318 320 321 322 322 323 323 323 324 324 324 324 323 322 321 322 323 321 321 322 322 321 317 314 310 305 302 301 301 301 301 300 300 301 301 302 303 303 302 302 301 300 299 298 298 298 298 298 298 298 298 298 298 297 297 297 299 299 300 303 303 299 296 297 298 296 295 295 294 293 294 294 294 293 293 293 292 292 292 292 292 291
310 311 313 315 316 319 320 321 322 321 320 321 322 322 322 320 318 318 320 319 318 318 319 318 313 309 305 302 299 299 300 300 301 301 301 301 301 302 302 301 301 300 300 299 298 298 298 298 298 298 297 297 297 297 297 297 296 296 296 297 298 298 299 297 295 296 297 296 295 293 293 293 292 292 293 293 293 292 292 291 291 291 291 291 290
309 311 313 313 313 314 316 318 319 319 318 318 319 318 318 318 317 317 317 315 314 312 312 309 303 300 299 298 297 298 299 300 300 301 301 300 300 300 300 299 299 298 298 298 298 297 297 297 297 296 297 296 296 296 295 296 295 295 295 295 296 295 293 293 293 296 296 294 293 292 292 292 291 291 291 291 291 290 290 290 289 290 290 289 288
307 309 311 311 311 311 312 313 314 315 314 314 315 316 316 317 317 316 314 313 312 307 304 303 299 298 298 297 298 298 299 299 299 300 299 299 299 299 298 298 298 297 297 297 297 297 296 296 296 295 295 295 295 295 294 294 294 293 293 293 293 292 291 292 292 293 293 293 292 290 291 291 290 290 290 290 289 289 289 288 288 289 289 288 287
308 309 310 310 310 310 310 310 312 312 310 310 312 313 312 312 313 312 309 307 307 304 301 301 299 299 298 298 298 298 298 298 298 298 298 298 298 297 297 297 297 297 296 296 296 296 295 295 294 294 294 294 294 294 293 293 292 292 292 292 291 290 291 291 291 290 291 292 292 291 290 289 290 289 289 289 288 288 288 287 287 288 289 287 286
310 309 310 311 310 311 310 310 311 311 310 309 310 311 309 307 307 308 305 302 302 300 299 298 298 298 298 298 298 297 297 296 296 297 297 297 296 296 296 296 296 296 295 295 295 295 294 294 293 293 293 293 293 293 292 292 292 291 291 291 291 290 290 290 290 288 288 289 291 291 290 290 289 288 288 287 287 288 287 286 287 288 288 286 285
309 309 310 310 309 310 311 311 311 310 310 309 309 311 309 306 304 305 304 302 299 297 297 297 297 297 297 298 298 297 297 296 295 295 295 295 295 295 295 295 295 295 294 294 294 294 293 293 293 292 292 292 292 292 291 291 291 291 290 290 290 289 290 289 288 287 287 287 288 288 289 289 289 288 287 286 286 286 285 285 287 287 287 285 285
308 309 309 308 308 308 308 311 311 311 310 308 307 308 306 303 302 302 302 301 300 299 298 299 299 298 298 299 299 297 297 296 295 295 294 294 294 294 294 294 294 294 293 293 293 292 292 292 292 292 292 291 291 290 290 290 290 290 290 290 289 289 289 288 287 286 286 286 285 285 286 286 287 287 287 286 286 286 284 285 286 286 285 284 284
307 308 307 307 308 307 308 310 311 311 311 309 307 305 303 301 301 301 302 302 302 302 302 303 303 303 302 302 300 300 299 297 297 296 294 293 293 293 293 293 293 293 292 292 292 292 292 292 291 291 290 290 290 290 290 289 289 289 289 288 288 287 286 286 285 285 284 284 284 284 284 284 285 286 286 285 285 285 284 285 285 285 284 283 283
Wind_Speed
14 15 14 13 11 9 8 7 8 9 8 8 8 9 10 11 15 17 19 19 18 17 15 13 12 14 15 14 12 11 10 9 8 9 10 9 9 8 8 9 10 12 12 12 11 10 9 9 6 4 3 5 8 10 12 14 15 13 12 11 11 11 11 12 12 11 11 10 11 13 13 11 9 10 11 11 11 9 8 7 6 8 8 7 7
15 15 15 13 11 10 8 8 7 7 6 5 8 10 12 14 18 21 22 21 20 19 17 15 15 17 17 16 14 12 11 11 11 12 12 11 10 9 9 8 9 10 10 10 9 8 6 4 3 2 3 4 7 10 12 13 14 13 11 10 10 10 11 11 11 11 11 11 12 14 15 13 9 9 10 12 14 12 8 5 5 8 8 8 8
16 16 15 14 12 11 9 9 6 5 4 5 10 12 14 18 21 22 22 21 20 20 19 19 19 20 19 17 16 15 14 13 14 15 14 12 11 9 9 8 8 9 8 7 6 5 3 2 4 4 4 5 8 11 13 14 14 13 11 10 9 9 9 10 10 11 11 12 13 14 15 14 11 9 9 10 12 13 11 8 7 8 9 8 8
17 17 17 14 13 12 10 8 4 3 4 8 14 15 17 21 21 21 20 20 20 19 20 20 19 20 18 18 17 15 15 14 14 15 15 13 11 10 9 8 7 6 5 4 3 3 2 4 6 6 7 8 10 12 13 14 13 12 10 9 8 8 8 9 9 10 11 13 14 15 13 12 10 8 8 9 10 12 12 11 9 8 9 9 8
18 18 17 15 14 12 10 6 3 1 5 13 17 18 21 22 20 19 18 18 18 18 18 18 18 18 17 17 16 15 14 14 14 14 13 12 11 10 8 7 6 4 3 3 3 4 6 7 8 9 10 11 13 14 14 13 11 10 8 8 8 7 8 8 8 9 10 12 13 13 9 7 7 8 8 8 9 11 11 10 9 8 10 11 8
18 19 17 16 14 12 9 5 3 1 7 16 19 21 22 20 18 18 17 17 16 16 16 16 16 16 16 15 15 14 13 13 13 12 11 10 9 7 6 4 3 3 3 3 5 6 7 9 10 11 12 13 14 14 13 12 10 8 6 7 7 7 7 7 8 8 8 10 12 10 6 3 5 7 7 7 8 9 9 9 9 8 9 9 8
18 19 18 17 14 11 7 5 2 3 11 19 21 23 21 19 18 17 16 15 15 15 15 15 15 15 15 14 14 13 13 12 11 11 9 7 6 5 3 2 2 3 5 6 7 8 9 10 11 13 13 13 13 13 12 10 8 6 6 7 7 7 7 7 7 8 7 9 10 7 4 4 5 6 5 5 6 6 7 6 7 6 6 7 7
18 18 18 16 14 11 7 5 3 7 16 20 23 22 19 18 17 16 16 14 14 14 14 14 14 14 14 13 13 13 12 11 10 9 7 6 5 3 1 1 3 5 6 7 9 9 10 10 11 12 13 13 13 12 10 8 4 4 6 7 7 7 7 7 7 6 8 9 8 4 4 5 5 5 4 3 4 5 6 5 6 5 5 5 6
18 17 17 15 14 11 8 5 5 13 19 22 23 19 17 18 16 16 15 14 14 13 14 13 13 13 13 13 12 12 11 10 9 8 7 5 3 2 0 2 3 4 6 7 7 8 8 9 10 11 12 11 11 10 7 4 2 4 5 6 6 7 6 6 6 6 7 7 6 4 4 4 3 4 4 3 5 6 7 7 7 6 6 6 5
17 17 16 14 14 11 8 7 9 16 20 23 22 17 16 16 15 15 14 13 13 13 13 13 13 12 12 12 11 11 10 9 8 7 5 3 2 2 0 2 4 5 6 7 6 5 5 5 7 7 8 9 8 7 5 2 4 5 5 5 6 6 6 5 4 5 7 5 4 5 4 3 2 4 5 4 5 6 7 8 8 8 8 8 7
16 17 15 15 13 10 9 9 13 18 21 23 21 17 16 16 15 14 13 13 13 13 13 13 12 12 12 12 11 10 9 8 6 5 3 2 1 1 2 4 6 7 8 9 7 6 5 3 1 1 2 3 3 3 2 2 4 5 4 4 5 5 5 4 3 4 5 5 5 5 4 3 3 4 5 5 6 6 7 7 8 8 8 9 9
16 16 16 14 11 9 9 11 15 18 21 23 20 17 17 16 15 13 12 12 12 12 13 13 12 12 12 12 11 9 8 6 5 3 2 1 0 2 6 8 9 10 10 11 9 7 6 4 4 3 2 2 1 2 2 3 4 4 4 4 5 4 4 4 3 4 5 5 5 5 4 4 4 5 5 6 6 7 7 7 8 8 9 9 9
17 16 16 13 11 10 10 13 16 20 23 22 18 17 16 15 14 13 12 12 12 12 13 12 12 11 11 10 9 7 6 4 3 2 2 1 3 6 9 11 11 12 11 10 8 7 6 5 5 5 4 3 2 2 3 4 4 4 4 4 5 5 4 4 2 4 6 5 5 5 5 5 7 7 6 5 5 7 7 8 8 9 9 9 10
18 17 16 14 12 11 11 15 18 22 23 20 18 17 16 14 14 13 12 12 11 11 12 11 11 10 9 8 7 5 5 3 2 2 0 2 6 9 10 11 11 12 10 9 7 7 6 7 7 8 8 6 4 4 3 4 5 5 5 6 5 5 5 5 4 4 5 5 6 7 6 6 8 9 8 8 7 7 7 8 8 9 9 10 10
17 18 16 14 13 11 12 16 20 22 21 18 17 17 15 14 13 13 12 11 10 10 10 10 9 9 8 7 6 5 4 3 2 2 4 6 8 9 10 11 11 10 8 7 6 6 6 7 7 7 8 7 6 6 5 5 6 6 6 6 6 6 6 6 5 5 6 6 6 7 7 7 8 10 10 10 10 10 9 9 9 9 9 10 10
17 17 15 14 12 11 13 17 21 20 18 17 17 17 15 14 13 12 11 9 9 8 8 7 7 6 6 5 5 4 4 4 4 5 6 7 8 9 9 9 7 5 4 3 3 4 5 5 6 6 7 7 7 7 7 6 7 7 7 6 6 6 6 7 6 5 7 8 7 7 7 7 9 12 12 12 12 11 11 11 11 11 11 11 11
17 16 15 13 12 11 15 19 22 19 17 16 15 16 15 13 12 11 10 9 8 7 6 6 5 5 5 5 5 5 5 5 5 6 7 8 8 8 8 6 2 0 1 2 4 5 5 6 6 7 7 7 8 9 8 8 8 7 8 7 7 7 7 8 7 8 10 10 8 8 8 8 11 12 12 12 12 12 12 12 12 13 12 11 11
17 15 14 12 11 11 16 21 22 19 16 15 14 14 13 12 11 10 9 8 7 7 6 6 6 5 5 5 5 5 5 5 6 6 6 6 6 6 5 3 1 2 3 4 6 7 7 8 8 8 9 8 9 10 10 10 9 9 10 9 8 8 8 8 8 11 11 10 9 8 8 10 13 13 13 13 12 12 12 12 13 13 13 13 11
16 15 14 12 11 11 17 22 22 19 16 14 13 12 11 10 9 8 7 7 6 6 5 4 3 3 3 3 3 3 3 2 2 2 2 4 5 5 5 5 5 6 6 7 9 10 10 10 11 11 11 10 10 10 10 10 10 10 10 10 9 8 7 7 9 10 8 8 8 8 10 13 14 14 14 13 12 11 11 11 11 12 13 14 14
16 15 14 12 11 12 18 23 22 18 15 14 13 12 10 9 8 7 7 6 5 3 3 2 2 2 3 3 3 3 4 4 4 5 6 6 6 7 7 7 8 8 9 11 13 13 14 14 14 14 13 13 11 11 11 11 10 11 10 9 9 8 8 8 9 8 6 6 7 9 11 13 14 14 13 13 12 11 11 11 10 11 13 13 13
18 15 13 11 11 13 18 22 21 18 15 14 13 11 9 8 7 6 6 4 3 4 4 5 6 6 6 7 7 7 6 6 6 7 7 8 8 8 7 8 9 10 12 13 14 14 14 14 14 14 14 14 13 13 13 13 13 13 11 10 10 9 9 7 7 7 6 5 7 10 12 13 14 13 13 12 12 11 11 12 11 11 11 12 12
20 18 13 11 11 13 18 19 19 16 14 14 12 10 8 7 6 5 4 5 7 9 9 10 10 10 10 9 8 6 4 6 6 6 6 7 8 8 8 9 10 10 11 12 12 12 12 13 12 13 13 13 13 13 14 13 13 13 12 12 12 11 10 8 8 6 5 7 8 11 12 13 13 13 12 12 12 12 11 12 12 11 11 12 13
22 21 15 12 12 14 17 17 16 14 14 13 11 8 7 6 5 5 6 9 12 13 12 12 12 11 10 9 7 3 1 4 6 5 4 5 7 7 7 8 8 8 8 9 9 9 10 10 10 11 12 12 11 11 10 11 11 11 11 11 11 11 12 12 10 6 6 8 9 10 12 12 13 13 13 13 13 13 12 13 14 13 13 13 13
22 21 17 13 12 14 15 16 16 14 12 11 10 10 10 9 8 9 10 11 13 13 12 11 11 10 8 9 8 6 3 2 4 3 3 5 5 4 4 5 6 6 6 7 6 7 7 7 8 8 9 8 7 8 7 8 9 9 9 8 9 11 12 11 9 6 6 7 9 11 12 12 13 14 14 14 15 16 15 15 14 13 13 12 12
23 22 20 17 15 14 14 15 15 14 13 12 13 14 13 13 13 12 11 11 11 11 11 10 10 10 9 9 8 8 6 4 3 2 2 3 3 2 2 4 6 5 5 6 6 6 6 6 7 7 7 6 6 7 8 8 8 8 8 8 10 10 10 9 7 6 7 8 10 12 13 12 12 13 14 14 14 15 14 13 12 12 12 13 13
25 25 24 23 21 18 16 16 17 17 16 16 16 15 15 15 15 13 11 10 10 10 10 9 10 10 10 8 7 7 4 4 4 3 4 2 1 1 2 3 4 4 4 6 6 7 7 6 6 7 6 6 7 8 8 9 9 9 9 10 11 10 8 7 6 5 7 8 11 12 12 11 11 11 11 10 10 11 11 10 11 11 11 11 12
29 29 28 26 26 23 21 20 21 21 19 17 17 16 16 16 15 13 11 10 11 10 9 9 11 11 11 9 7 5 3 3 4 3 2 1 1 3 3 3 4 4 4 5 5 6 6 6 5 5 6 8 10 10 10 10 10 10 10 10 11 9 7 7 5 5 6 7 9 10 10 10 10 10 10 10 10 10 9 9 10 10 10 10 11
31 31 30 28 28 26 25 24 23 22 20 19 18 17 16 16 16 14 12 12 12 11 8 8 11 13 12 9 6 5 3 3 4 3 2 1 2 4 3 4 5 5 5 4 3 3 4 5 5 5 7 10 10 10 10 10 9 9 9 8 10 9 7 6 6 5 5 6 7 6 7 9 9 9 9 10 10 9 9 9 9 9 10 10 10
31 31 31 30 30 29 27 26 24 23 22 21 20 18 17 16 16 15 14 14 14 12 9 9 11 13 12 8 5 4 4 3 2 2 1 1 3 5 3 4 4 4 4 3 1 0 2 5 5 5 8 9 10 10 10 10 9 9 8 7 8 9 6 5 7 6 6 5 6 5 5 5 6 7 8 8 8 8 8 8 8 9 10 10 10
30 31 31 30 32 30 27 26 25 24 22 21 20 19 18 18 16 16 14 14 15 12 10 8 7 9 10 8 5 4 5 4 2 1 1 0 4 4 2 2 2 2 2 1 2 3 4 5 5 7 8 9 10 9 8 8 8 9 8 7 9 9 4 3 7 8 6 3 4 5 5 4 4 5 6 7 7 7 7 7 8 8 9 9 9
30 31 31 30 32 30 27 26 25 25 23 21 20 19 19 19 17 16 13 12 14 12 10 8 5 5 6 6 6 4 5 5 5 4 3 3 5 3 2 2 2 2 2 2 4 6 6 6 6 8 8 8 9 8 7 7 8 7 7 8 9 7 3 4 8 9 5 1 3 5 5 5 5 5 5 6 7 7 7 7 7 7 8 7 8
31 31 30 30 32 31 29 26 25 24 23 21 19 18 19 19 18 18 17 14 12 10 9 10 9 8 7 7 7 7 6 5 6 5 3 3 3 3 5 5 4 4 4 5 6 7 7 6 5 7 7 7 8 7 5 6 6 6 6 8 7 5 3 4 7 10 8 5 5 6 6 5 6 7 7 6 7 8 8 8 7 7 8 8 7
30 31 30 29 30 30 30 28 25 24 23 22 19 18 19 20 20 19 18 17 13 10 10 11 11 10 10 10 8 8 7 6 6 4 2 4 5 5 6 6 5 5 6 6 6 6 6 6 5 5 6 6 6 5 4 4 4 4 4 6 4 3 4 3 7 9 8 8 7 6 5 5 6 8 9 9 8 9 9 9 8 7 8 9 9
28 30 30 29 29 29 30 29 26 23 23 23 20 19 19 20 22 20 18 16 15 13 11 11 12 12 12 11 9 8 8 6 5 4 4 6 7 6 6 5 5 5 6 6 6 6 5 5 5 4 4 4 3 3 2 2 3 2 3 5 3 3 3 3 7 8 7 7 6 4 4 5 7 9 10 10 9 9 9 9 8 8 8 9 9
26 29 30 30 29 28 29 29 27 24 23 22 21 19 18 20 22 21 18 16 16 15 13 12 13 13 13 11 11 10 8 7 6 6 6 6 6 6 5 5 5 5 6 6 5 5 4 3 3 3 3 2 2 2 2 2 3 2 3 5 3 3 3 4 6 6 6 5 4 4 6 7 8 9 9 8 9 10 10 10 10 9 10 10 11
26 28 29 29 28 27 28 29 28 26 24 22 21 21 19 20 20 20 19 18 18 16 14 13 13 13 13 13 12 11 9 8 8 7 6 6 5 5 6 6 5 5 5 5 4 3 3 2 1 1 2 2 3 4 4 4 4 3 3 4 3 3 3 4 5 5 5 5 4 5 7 8 9 10 10 10 11 12 12 13 12 12 12 12 13
26 27 27 27 27 27 27 27 27 26 25 23 23 22 21 19 19 20 21 21 20 16 14 13 13 14 14 14 13 11 10 9 8 7 7 6 6 6 6 6 5 5 4 3 3 2 1 1 1 2 3 4 5 5 6 6 5 3 2 4 4 4 3 4 4 3 4 5 4 6 9 10 11 12 12 13 14 14 15 14 14 14 15 16 16
25 26 27 28 28 28 28 28 27 26 25 25 24 23 22 21 19 21 23 24 21 16 15 14 14 16 15 14 13 12 11 9 8 7 7 7 7 7 7 6 5 4 3 2 1 0 1 3 4 5 6 7 7 7 7 6 6 4 1 3 5 5 5 5 4 4 6 6 5 7 11 11 12 13 14 14 15 16 16 15 15 16 17 17 19
25 26 27 28 28 27 28 28 28 27 26 26 25 24 23 22 20 20 22 23 20 17 16 16 16 17 17 16 15 13 11 10 8 7 7 7 8 7 7 6 4 3 2 1 0 2 3 5 6 7 8 9 9 8 8 7 6 4 1 3 5 5 5 5 6 6 8 9 6 7 12 12 12 13 14 15 15 16 16 16 17 17 18 18 21
24 26 27 28 29 28 28 28 27 28 27 26 25 25 26 25 23 22 22 21 18 17 17 17 17 18 17 16 15 13 12 10 8 8 7 7 7 7 6 4 3 2 1 1 2 3 5 6 7 7 7 8 8 7 7 6 6 4 1 3 4 4 4 5 8 9 9 11 8 7 11 12 12 13 13 15 15 16 17 17 17 18 19 20 22
21 24 26 27 28 29 29 28 28 28 28 27 27 27 28 28 26 25 23 21 18 17 18 18 18 18 17 16 15 13 11 10 9 8 8 8 7 6 5 3 2 1 1 2 4 5 6 6 6 7 7 6 6 6 6 5 4 3 3 3 3 4 4 5 8 10 12 13 9 8 12 13 14 14 14 15 16 17 18 19 20 19 20 22 24
19 22 24 26 26 28 29 29 29 28 28 28 28 30 30 29 28 27 24 22 21 20 20 20 20 19 17 15 14 13 12 11 9 9 8 7 6 5 3 2 1 2 3 4 5 6 6 6 6 6 7 7 7 7 7 5 4 2 4 5 3 4 4 5 7 11 14 14 11 12 15 16 17 17 17 17 18 19 19 21 22 22 22 23 25
19 21 23 25 25 26 28 28 29 29 29 30 30 31 31 29 28 28 26 24 24 23 22 22 20 18 16 14 14 13 12 11 10 9 7 5 4 3 2 1 2 3 4 5 5 5 6 6 6 7 7 7 7 7 7 6 5 3 2 5 5 5 5 6 6 9 11 12 13 16 17 17 19 20 19 19 20 21 21 23 24 24 24 24 26
20 21 22 23 24 26 27 29 30 30 30 31 32 31 29 27 26 26 26 26 26 25 23 21 19 17 16 15 14 12 11 10 9 7 6 4 3 2 2 2 3 3 4 4 5 5 6 6 6 7 6 6 6 6 6 6 5 3 1 3 5 4 4 6 7 7 7 10 13 17 18 18 20 22 22 21 22 23 23 24 25 25 25 25 27
20 21 23 24 24 24 25 27 29 30 31 31 31 30 28 26 25 25 25 25 25 24 22 21 19 17 16 15 13 11 10 8 7 6 5 4 3 2 2 2 3 4 4 4 5 5 5 6 6 6 6 6 5 5 5 5 5 4 3 2 2 1 2 8 9 3 5 9 11 16 19 19 22 23 24 24 24 25 26 27 26 24 25 26 29
16 17 20 22 24 25 25 25 25 27 28 29 29 29 28 28 29 29 28 26 25 24 23 22 20 18 15 13 11 10 9 7 6 5 4 3 2 2 2 3 3 4 4 5 5 5 5 5 5 5 5 6 5 5 5 5 6 5 5 4 2 2 5 9 9 5 7 9 10 16 19 20 22 23 25 26 26 27 27 29 26 22 24 26 30
15 14 14 15 17 20 22 24 24 23 21 21 23 24 25 26 27 28 27 26 25 24 22 20 18 16 14 12 10 9 8 7 6 4 3 2 2 2 3 3 4 4 4 4 4 4 4 5 5 5 6 6 6 6 6 6 6 6 6 5 4 4 6 9 10 13 14 12 13 16 18 21 22 22 24 25 27 27 27 28 23 20 23 26 31
17 17 16 14 14 14 15 18 21 21 19 18 18 17 16 17 18 18 19 18 18 19 20 19 17 15 13 11 9 7 6 5 4 3 3 3 3 3 3 4 4 4 4 4 4 4 5 5 5 6 6 6 7 7 7 6 6 6 6 6 6 6 6 8 10 13 15 18 19 17 18 21 21 22 23 24 25 25 27 27 20 20 23 27 32
20 19 20 19 18 16 13 13 15 17 19 20 19 17 16 16 16 16 16 16 13 13 14 14 14 13 11 8 6 4 4 3 3 3 3 3 3 3 3 3 4 4 4 4 4 5 5 5 6 6 7 7 7 7 7 7 7 7 7 7 7 6 5 7 9 11 12 16 20 20 22 23 22 21 22 24 24 24 26 24 18 20 23 29 33
23 23 23 23 23 23 20 17 16 17 18 19 19 19 19 18 17 17 18 19 17 14 12 11 9 8 7 6 3 1 2 2 3 3 4 4 4 3 3 3 4 3 4 4 4 5 5 6 6 6 6 6 6 6 7 7 7 7 7 7 7 7 7 8 10 12 13 13 17 21 24 25 25 24 23 25 24 24 26 21 17 20 24 30 33
27 27 27 27 26 26 25 23 22 20 20 19 19 19 19 18 17 16 16 17 17 15 13 11 10 7 5 3 2 2 3 5 6 7 6 5 4 3 3 3 3 3 4 4 5 5 5 5 5 5 5 6 6 7 7 7 8 8 8 8 8 8 8 10 12 13 14 14 17 21 23 24 26 25 25 26 23 24 25 19 17 21 26 31 32
Wind_Direction
168 171 160 151 151 143 136 117 104 99 91 94 108 117 119 119 120 124 125 124 121 116 113 119 135 139 138 143 140 132 125 115 117 126 126 123 117 118 112 99 96 98 98 97 95 92 91 89 93 91 67 39 23 12 7 4 7 15 25 37 47 53 55 59 61 64 69 66 65 56 49 50 60 67 65 66 60 61 78 85 63 30 35 33 25
162 166 158 152 149 145 140 123 105 95 89 100 120 125 124 125 122 122 120 117 116 112 107 106 121 130 130 131 127 123 119 110 109 115 118 121 121 121 115 107 103 98 96 93 90 89 88 77 61 39 18 357 351 350 350 352 355 1 15 34 45 52 54 59 62 62 66 68 64 53 44 38 49 66 66 68 60 57 62 73 52 32 41 39 30
159 160 155 152 149 148 145 131 106 88 91 118 135 134 129 127 124 122 119 116 114 112 109 106 113 120 119 119 118 116 114 108 106 109 112 117 124 123 121 118 108 100 92 88 84 77 69 352 341 342 330 323 328 334 338 340 344 347 0 22 39 51 54 59 63 64 67 70 62 49 39 29 40 58 62 62 55 54 53 57 52 47 54 44 42
160 157 154 153 151 149 147 131 100 77 97 133 141 137 133 130 127 124 120 118 115 114 113 111 113 115 116 117 117 117 116 115 113 114 114 117 124 123 116 110 100 93 80 68 47 19 331 320 322 319 310 311 314 320 325 329 335 337 348 13 32 50 56 62 64 67 69 71 67 56 40 17 29 40 45 53 45 47 45 50 51 54 53 41 44
159 155 155 153 152 150 146 129 103 79 114 141 143 138 136 132 130 126 122 121 119 118 117 115 114 115 117 119 120 121 120 119 119 118 117 117 119 116 105 96 87 71 50 13 343 323 311 310 306 302 301 302 304 310 318 324 332 338 354 19 35 53 62 68 69 70 72 76 76 70 60 10 21 29 32 47 38 38 34 33 34 41 40 32 34
157 156 156 154 153 149 145 131 117 109 135 143 142 139 138 134 132 128 126 124 124 124 122 120 118 120 122 123 124 124 123 121 120 118 116 112 109 106 97 80 65 29 354 329 312 303 300 298 294 292 291 293 298 306 314 322 331 346 19 40 45 61 69 74 75 73 74 79 76 74 83 42 33 30 25 40 37 36 32 25 19 24 28 23 24
156 157 159 158 154 151 148 141 131 133 143 145 142 142 139 136 134 131 129 127 129 130 129 128 126 128 128 129 129 127 128 128 124 119 115 109 103 97 83 43 5 336 318 312 301 293 290 289 289 287 288 292 298 305 312 317 326 350 43 57 55 68 75 78 79 75 71 71 73 74 76 62 51 35 18 25 31 34 37 37 28 29 29 20 15
155 158 161 159 155 153 148 137 128 143 146 146 143 142 140 138 136 132 132 133 136 137 137 135 134 134 134 136 136 134 136 136 133 129 125 123 118 104 70 343 327 319 311 307 300 291 284 282 282 282 286 293 298 304 314 318 327 14 56 66 66 74 79 83 85 85 76 67 68 77 59 44 42 37 23 0 0 10 21 32 37 37 38 31 15
155 160 160 157 154 150 147 131 129 145 147 146 142 141 142 140 137 137 137 139 141 142 141 140 142 141 140 142 142 141 141 142 142 143 143 145 151 159 220 330 330 329 326 323 315 296 283 276 274 278 283 288 294 301 316 334 46 65 68 74 77 79 82 88 93 87 75 70 64 73 71 50 27 22 31 4 340 349 359 3 9 12 14 12 358
157 160 158 155 151 152 150 130 136 145 149 148 142 143 145 141 141 142 142 144 145 145 145 145 147 147 146 146 146 146 144 146 146 152 157 164 186 179 212 354 352 346 341 340 339 319 304 283 271 277 286 287 288 292 307 355 84 86 83 83 85 87 89 93 99 87 71 65 61 67 69 56 3 4 20 5 344 344 346 346 347 350 351 349 343
159 158 158 155 152 158 151 133 142 147 152 150 143 145 145 145 147 145 147 148 148 147 148 148 149 151 148 145 146 147 146 146 149 158 173 193 213 197 349 352 352 348 346 347 350 348 348 340 314 310 319 313 301 299 318 38 83 94 99 91 90 90 92 86 73 85 74 50 44 51 51 26 6 16 8 351 341 338 337 335 333 333 332 330 329
159 158 157 154 152 157 146 138 146 149 153 150 143 147 148 150 150 147 150 148 149 147 147 148 149 150 147 146 145 147 144 142 146 146 137 128 333 342 343 344 345 346 348 349 351 357 9 39 65 65 38 22 18 25 33 46 66 95 102 88 84 82 80 70 57 76 61 38 33 31 34 11 15 30 4 344 333 330 330 326 322 321 319 317 316
160 159 154 151 151 148 142 144 150 151 151 148 146 151 151 153 152 149 148 145 145 141 142 146 145 145 147 147 143 145 138 134 144 127 100 54 349 337 334 335 339 343 346 348 352 357 14 44 51 45 33 35 45 47 46 39 58 87 83 66 68 67 59 44 30 67 47 22 25 24 17 6 17 20 360 347 331 324 317 313 312 308 306 304 304
159 157 154 152 149 140 143 151 154 152 150 148 149 153 153 154 154 150 145 141 140 134 134 137 138 140 144 144 139 142 138 138 148 134 117 325 325 323 324 328 333 338 343 347 353 357 13 35 39 35 29 36 50 57 53 43 60 70 60 53 56 53 50 33 10 50 45 10 12 17 12 12 15 4 351 347 337 331 321 316 312 306 306 305 305
158 156 157 153 146 139 145 155 156 154 151 151 152 153 155 154 153 151 148 143 141 137 133 135 139 143 144 145 147 155 165 182 202 247 283 301 307 312 317 323 330 333 338 347 1 16 29 39 43 39 35 44 54 59 56 50 55 55 57 54 48 41 39 37 27 47 38 7 7 12 10 8 3 351 344 341 336 336 333 330 326 322 321 320 321
160 159 159 151 145 140 145 157 159 157 154 153 155 155 156 154 151 150 149 148 150 150 148 151 156 160 163 167 175 190 213 227 246 265 279 288 294 303 312 317 323 328 335 355 32 60 61 60 59 58 59 62 62 62 58 52 50 49 54 51 47 40 36 45 42 42 24 8 13 5 359 357 349 343 340 339 338 339 337 337 334 331 329 327 328
162 159 157 149 145 141 147 160 163 160 157 156 158 157 158 155 152 151 151 155 159 161 166 173 178 189 196 202 213 224 237 246 257 268 278 287 298 305 308 308 303 8 54 52 65 69 68 69 65 63 64 65 64 61 58 53 50 49 49 44 46 40 37 45 38 39 27 14 11 348 345 353 344 340 339 341 343 345 346 345 339 335 333 328 326
160 159 155 148 144 145 152 162 166 164 159 159 160 158 158 156 156 156 159 165 170 177 180 185 190 197 205 213 224 237 250 259 268 281 294 306 321 327 333 339 21 70 65 57 59 62 61 64 61 55 52 55 62 61 59 55 51 49 48 45 43 38 38 42 44 46 30 9 3 341 337 343 340 341 340 343 347 349 350 345 338 336 337 337 333
158 159 154 149 146 147 156 164 168 166 161 162 161 160 160 159 163 166 172 178 182 188 187 190 191 190 195 200 212 225 238 245 271 310 354 13 19 25 35 43 57 63 64 60 59 59 56 55 51 47 41 42 52 52 50 49 49 47 48 49 42 40 37 37 49 48 26 7 358 336 332 335 339 342 342 346 350 351 349 337 332 340 345 348 346
154 158 155 154 150 150 161 166 169 166 166 167 165 163 161 164 168 174 181 179 177 174 161 149 130 126 129 124 123 116 114 114 101 88 72 62 58 57 63 70 75 71 67 61 56 53 49 49 48 46 42 40 42 43 39 31 34 37 39 48 42 36 26 27 45 40 27 8 333 325 336 341 346 345 346 353 354 351 344 334 341 353 351 352 353
149 150 158 159 151 155 165 169 170 169 169 169 168 164 163 165 167 175 175 162 140 121 115 108 104 101 98 100 96 88 95 99 91 88 79 69 63 60 67 72 71 67 64 61 57 53 50 52 52 50 47 44 40 39 36 27 30 34 32 38 40 33 18 20 50 41 20 344 323 338 349 352 354 353 355 359 357 350 346 348 357 360 354 358 2
147 146 160 164 153 158 166 169 170 172 175 173 171 167 164 163 164 172 155 133 122 112 113 111 108 103 94 87 81 75 86 87 74 78 79 66 58 57 64 66 62 62 63 61 57 53 52 52 53 51 47 43 38 35 36 33 36 36 32 34 37 32 21 33 62 47 3 346 349 352 353 356 359 3 9 5 0 355 356 3 4 5 7 8 5
149 148 158 166 156 157 164 164 165 175 181 177 173 165 159 157 155 154 147 144 135 128 129 126 124 119 108 102 109 132 114 80 77 72 68 54 49 51 61 63 56 59 60 58 55 52 49 45 47 49 45 42 36 33 38 40 38 35 31 31 36 35 34 45 57 41 1 357 353 349 358 8 13 17 20 14 7 8 14 16 13 15 18 15 9
153 151 154 159 152 152 164 166 166 173 174 164 162 163 160 158 154 149 151 153 146 141 142 139 136 133 132 134 146 173 186 117 93 75 65 60 46 39 60 62 58 67 59 54 57 51 46 40 43 47 43 43 39 38 46 47 42 41 39 41 49 45 41 46 49 27 5 356 342 354 11 18 28 32 28 23 18 22 27 27 23 23 23 20 15
159 154 151 151 150 153 166 168 163 165 166 161 164 169 169 166 164 161 161 158 152 149 146 150 148 143 150 155 164 176 182 160 120 129 133 94 55 28 78 77 72 81 62 58 71 62 54 44 41 44 40 38 45 52 57 60 58 56 60 75 73 59 48 46 41 19 6 356 346 3 16 18 30 39 40 37 32 35 37 35 33 34 35 29 24
163 159 155 154 154 159 166 165 164 169 175 176 174 176 178 177 175 172 174 167 157 158 157 165 164 154 153 162 177 173 169 184 167 149 150 165 344 39 94 87 80 88 74 72 83 81 76 66 50 39 32 40 57 69 72 69 67 63 67 78 76 68 59 50 39 19 12 3 353 7 22 25 31 37 43 42 37 39 37 31 27 26 27 24 20
165 163 162 162 160 161 167 170 175 179 181 183 182 184 187 188 184 179 183 179 167 166 168 177 175 167 165 174 185 166 166 198 172 140 140 208 15 68 87 76 71 84 104 113 102 89 88 87 69 51 59 70 76 83 82 76 71 66 67 70 68 66 64 59 47 21 16 11 357 9 31 40 44 43 44 41 37 38 35 30 23 18 15 12 10
168 167 167 169 165 165 172 176 184 187 184 185 187 190 192 193 190 186 190 188 178 171 179 197 191 184 181 183 178 154 177 193 161 163 179 201 75 84 86 86 88 88 102 112 98 78 82 84 64 65 87 87 84 85 82 79 75 69 66 70 73 73 69 69 65 31 10 8 353 1 27 39 46 41 38 35 31 31 29 28 24 21 19 18 16
171 170 170 173 170 172 178 181 188 192 189 189 190 192 194 196 194 193 197 198 192 183 190 211 208 204 197 183 171 156 173 190 167 170 251 287 103 84 62 93 107 110 104 70 43 68 91 82 59 72 94 92 88 82 80 80 75 71 68 68 76 81 74 74 87 60 14 355 340 335 348 12 32 28 25 23 17 15 13 14 14 14 17 20 19
175 174 173 177 177 176 181 186 191 194 193 193 193 195 195 195 193 194 203 209 203 192 190 200 203 206 197 177 177 177 175 192 216 212 252 194 118 90 35 68 98 143 158 31 75 110 109 106 92 94 98 93 89 82 81 83 78 78 76 73 82 91 86 74 104 87 40 0 321 312 307 328 7 15 17 15 8 5 2 4 7 13 19 18 15
180 180 177 180 182 180 183 189 193 194 197 196 196 199 197 195 194 195 203 204 196 189 192 206 212 208 192 174 175 183 187 200 208 201 195 139 119 119 97 90 95 134 164 139 109 111 113 117 111 105 98 89 88 84 82 82 83 87 86 92 100 112 110 76 119 125 105 117 278 290 297 325 348 348 1 9 3 359 359 360 1 14 15 5 7
182 183 182 183 187 186 187 191 195 196 199 199 199 203 201 200 200 198 199 198 191 192 203 216 222 221 202 183 186 197 201 203 197 194 187 143 134 144 128 116 119 130 141 129 117 117 116 113 104 97 92 87 86 86 86 81 85 91 93 106 117 130 111 93 135 151 161 193 242 272 295 334 342 326 334 359 3 355 356 358 359 11 6 351 352
182 183 184 185 189 191 190 193 197 199 202 203 202 205 205 206 207 205 206 207 207 205 206 206 207 208 200 192 197 201 197 194 189 187 181 156 147 143 134 131 137 142 140 127 118 116 111 106 97 85 84 86 85 86 83 76 82 88 102 117 133 130 102 132 166 171 187 205 225 257 296 331 330 324 333 349 356 351 351 354 355 359 352 344 342
183 182 185 187 191 194 193 193 196 200 206 206 205 207 210 215 216 217 216 213 209 202 198 200 199 199 198 195 189 183 185 187 177 160 148 149 148 144 143 151 157 152 140 128 122 115 106 104 97 85 84 82 80 83 68 54 72 75 116 130 156 155 115 166 190 194 212 221 234 269 319 330 326 331 338 342 346 348 348 348 348 344 339 338 335
188 183 184 187 190 194 197 195 193 197 204 206 207 210 214 220 220 218 216 207 200 196 198 203 203 200 195 187 178 175 181 181 170 153 145 148 154 155 164 170 161 150 140 130 124 114 109 103 92 86 75 63 53 50 25 21 44 46 121 144 192 196 149 194 214 220 239 257 281 308 328 329 329 336 338 339 345 352 352 350 348 341 335 336 335
193 188 185 185 187 191 197 199 197 198 201 203 207 210 213 217 216 214 211 204 198 195 200 207 204 196 187 179 176 177 180 178 170 159 155 159 168 173 175 167 153 145 139 131 126 120 116 99 82 61 21 17 7 359 358 0 10 31 126 165 236 242 182 220 238 241 263 291 309 315 325 333 340 343 344 347 350 355 359 358 354 343 337 338 341
195 192 186 186 190 193 196 201 203 204 202 201 205 209 211 213 215 217 211 203 198 194 201 210 200 187 181 179 178 179 179 177 173 168 168 171 175 178 172 162 154 149 141 132 130 118 96 23 358 349 344 346 346 345 345 349 356 12 145 192 253 254 223 238 250 266 295 310 315 324 333 342 351 353 351 353 354 356 359 360 354 345 344 341 338
194 195 190 188 193 197 199 202 205 207 207 206 207 209 211 211 215 217 208 199 196 195 203 208 194 183 182 182 180 178 176 175 176 175 175 173 172 173 169 163 157 152 147 138 136 21 342 340 337 337 337 334 334 333 336 344 348 349 184 219 257 251 245 247 257 298 327 329 331 344 345 346 353 356 353 354 354 354 355 354 349 346 349 345 336
193 196 194 192 193 197 201 203 205 207 210 212 213 212 211 208 206 207 200 194 192 193 202 203 190 183 185 185 181 177 176 177 179 178 174 172 173 173 169 165 161 158 157 160 296 323 331 333 332 333 333 330 330 331 336 340 338 349 169 237 257 259 263 254 273 300 325 332 331 346 349 346 349 354 352 352 352 352 351 346 345 347 348 345 336
193 195 197 196 196 199 202 205 206 208 210 212 214 213 210 202 194 196 194 191 192 192 197 196 186 184 187 186 179 175 176 176 175 174 173 175 177 176 173 170 168 170 186 267 312 326 329 330 331 330 329 329 329 329 333 339 340 4 145 226 249 276 283 266 284 295 312 327 321 322 343 343 342 347 349 350 349 349 348 342 342 346 345 343 338
198 195 195 195 198 201 204 207 208 209 210 211 210 209 206 196 189 191 190 190 193 194 190 187 184 183 186 185 176 172 172 169 168 171 175 179 181 180 177 176 179 208 289 308 321 327 328 330 329 326 324 323 324 328 339 343 349 30 139 187 243 276 281 277 287 297 311 321 312 309 333 340 338 342 347 349 348 348 349 344 341 344 344 344 340
202 197 195 196 199 202 206 208 208 210 211 210 207 204 201 196 190 189 189 190 190 188 183 181 183 182 181 182 175 169 167 164 167 173 178 181 182 182 181 194 244 294 315 324 328 328 327 327 325 325 325 325 329 336 343 346 355 39 140 164 212 249 257 262 284 305 313 316 313 315 331 340 339 340 344 347 347 347 350 347 342 341 343 344 341
201 198 196 197 199 202 205 205 205 205 204 204 202 200 199 196 190 184 186 189 183 178 178 178 180 179 173 175 173 165 161 164 171 177 182 185 186 194 209 251 291 314 322 325 326 324 324 323 325 328 329 333 336 336 340 348 3 16 139 161 182 215 229 230 280 309 304 307 314 318 327 339 341 340 342 345 347 348 350 349 343 340 341 342 341
204 199 196 196 198 202 204 203 202 199 194 194 194 195 195 193 187 182 182 181 173 170 174 173 172 172 167 168 167 159 158 168 177 180 186 194 202 221 255 289 306 315 316 318 319 318 322 324 327 330 331 334 336 341 344 349 5 22 107 172 187 196 211 247 301 306 282 298 314 319 326 338 342 340 341 343 347 348 348 349 345 341 341 342 342
210 205 201 198 197 198 202 202 201 196 191 189 189 189 189 187 185 182 178 173 167 165 168 167 164 164 162 162 158 153 160 171 177 182 189 199 213 238 276 297 305 310 312 314 316 318 323 324 328 331 332 334 338 353 359 354 3 21 44 94 171 179 277 303 317 286 268 302 317 324 330 341 345 343 344 346 349 351 350 352 350 343 342 345 346
215 213 210 205 198 194 195 197 198 196 191 188 186 185 186 187 184 179 174 172 169 165 165 165 162 161 158 157 157 156 162 172 176 184 191 200 223 256 284 295 298 302 306 309 311 317 322 325 332 335 338 347 351 351 360 9 15 19 29 52 69 345 328 330 332 315 303 310 325 333 334 341 345 346 347 348 351 354 353 355 353 343 340 345 346
212 210 213 217 213 204 194 189 191 193 191 187 187 186 183 183 182 176 170 169 169 165 162 161 158 157 155 155 159 158 161 171 176 184 196 212 239 261 274 282 288 292 297 305 311 317 326 335 344 349 352 358 358 354 2 14 20 21 23 33 29 358 351 348 339 333 326 315 321 332 335 339 344 346 346 347 349 351 352 355 352 338 337 342 342
201 199 200 203 212 219 212 197 189 187 185 180 181 184 179 174 173 170 163 159 159 156 153 153 152 152 154 154 157 160 165 172 178 190 209 228 242 254 265 272 281 293 301 309 321 332 342 352 356 359 359 357 360 3 8 10 10 15 17 15 12 6 358 347 337 339 333 320 321 327 330 335 343 349 348 347 348 349 351 354 347 333 335 338 338
191 191 189 184 182 188 199 200 189 181 177 171 170 175 176 171 167 164 157 147 143 145 142 143 143 143 145 144 146 163 176 184 194 210 223 234 242 251 264 275 287 299 313 325 338 349 354 358 359 358 359 359 2 7 6 7 9 11 9 6 5 4 353 341 336 340 337 328 327 329 332 333 337 347 349 347 348 351 353 352 337 330 333 333 334
185 182 177 173 170 168 170 174 176 176 174 169 167 167 168 167 162 157 154 149 148 151 147 140 137 136 135 131 136 189 230 247 253 256 253 250 252 260 269 284 300 313 331 345 353 359 359 357 355 354 358 1 5 10 9 8 7 4 1 360 1 358 350 346 346 347 346 338 329 331 338 337 336 343 347 346 347 350 352 346 331 328 328 328 333
179 176 173 171 169 168 168 170 173 176 178 175 170 166 163 161 158 154 153 153 154 158 157 153 151 148 140 137 167 250 272 271 270 265 257 251 253 263 281 298 321 336 348 358 358 357 355 352 353 358 6 10 11 11 8 5 4 3 4 6 10 9 1 356 355 351 348 342 332 332 339 339 335 340 344 345 346 347 347 340 326 323 323 327 334